sat.trackr.live / text

‹ back to catalog

STARLINK-33709

NORAD 63419 · 2025-065W

PAYLOAD ACTIVE UNKNOWN

§ Identity

Operator
Country
US
Launch date
2025-03-31
Launch site
AFETR
Launch vehicle
Mass (kg)
RCS (m²)

Purposes: comms

External: N2YO · Heavens-Above · Gunter

§ Orbital elements

Epoch: 2026-05-25T02:34:38.663616Z

Period
94.27 min
Inclination
43.0014°
Eccentricity
0.0001376
Mean motion
15.27601156 rev/d
Perigee alt
482.0 km
Apogee alt
483.9 km
Semi-major
6,861.1 km
B*
7.4165e-4
RAAN
35.7491°
Arg perigee
259.7809°
Mean anomaly
100.2887°
Rev number
6,452

§ Raw data

STARLINK-337091 63419U 25065W   26145.10739194  .00020216  00000+0  74165-3 0  99992 63419  43.0014  35.7491 0001376 259.7809 100.2887 15.27601156 64520

JSON: /api/v1/satellites/63419 · /tle

For live sub-satellite position, see the globe view (requires WebGL).

§ Visibility from observer

Set your observer location to see the next 7 days of passes ≥ 10°. The values pass through the URL so the page stays shareable.

No JS? Fill the form by hand. The geolocation button needs JavaScript.